[[{"header":{"parameterUnit":"m.s-1","parameterCategory":1,"la1":30.2991,"la2":30.254,"lo1":-89.0895,"lo2":-89.0444,"dy":0.0017,"dx":0.0017,"nx":28,"ny":28,"refTime":"2024-03-28T21:00:00:Z","depth":0,"parameterNumber":2,"parameterNumberName":"U-component_of_WINDS"},"data":[0,0,0,0,0,0,0,0,0,0,0,0,0,0,0,0,0,0,0,0,0,0,0,0,0,0,0,0,0,0,0,0,0,0,0,0,0,0,0,0,0,0,0,0,0,0,0,0,0,0,0,0,0,0,0,0,0,0,0.9088,0.9087,0,0.9058,0.9058,0.9057,0.8996,0.8994,0.8993,0.8992,0.8962,0.8962,0.8963,0,0,0,0,0,0,0,0,0,0,0,0,0,0.9091,0.9091,0.9088,0.9087,0.9087,0.9058,0.9058,0.9057,0.8996,0.8994,0.8993,0.8992,0.8962,0.8962,0.8963,0,0,0,0,0,0,0,0,0,0,0,0,0,0.9078,0.9091,0.9088,0.9053,0.9049,0.9058,0.9058,0.9057,0.8996,0.8994,0.8993,0.8991,0.8962,0.8962,0.8963,0.9003,0,0,0.8965,0.8965,0,0,0,0,0,0,0,0,0.9079,0.9078,0.9058,0.9055,0.9051,0.9029,0.9048,0.9039,0.8997,0.9016,0.8992,0.899,0.8986,0.8984,0.8983,0.9002,0.9001,0.8965,0.8965,0.8965,0.8965,0,0,0,0,0,0,0,0.908,0.9079,0.9076,0.9058,0.9054,0.9038,0.9035,0.9046,0.9012,0.9015,0.901,0.9007,0.8984,0.8982,0.8982,0.9,0.8965,0.8965,0.8965,0.8966,0.9049,0.9051,0,0,0,0,0,0,0.9086,0.908,0.9077,0.9075,0.9061,0.904,0.9036,0.9038,0.9012,0.9006,0.9009,0.9005,0.8982,0.8981,0.898,0.9025,0.8965,0.8966,0.8966,0.9047,0.905,0.9052,0,0,0,0,0,0,0.9086,0.9086,0.9078,0.9076,0.9074,0.9042,0.9045,0.9038,0.9037,0.9007,0.9001,0.9014,0.8981,0.898,0.8998,0.9023,0.8966,0.8966,0.9045,0.9048,0.9051,0.9115,0,0,0,0,0,0,0.9086,0.9087,0.9102,0.9077,0.9074,0.9096,0.9046,0.9039,0.9038,0.9032,0.901,0.9005,0.8979,0.8997,0.8998,0.9022,0.8967,0.9043,0.9046,0.905,0.911,0.9119,0.9127,0,0,0,0,0,0.9087,0.9121,0.9103,0.9103,0.9093,0.9098,0.9096,0.9066,0.904,0.9055,0.9036,0.9006,0.902,0.9,0.9,0.9025,0.9041,0.9045,0.9049,0.9106,0.9117,0.9127,0,0,0,0,0,0,0.915,0.9117,0.9097,0.9124,0.9114,0.9087,0.9105,0.9079,0.9076,0.9071,0.9033,0.9029,0.9051,0.904,0.9018,0.9062,0.9025,0.903,0.9068,0.9079,0.9087,0.9089,0.8967,0,0,0,0,0,0.9167,0.9174,0.9145,0.9172,0.9168,0.9138,0.9139,0.9116,0.9104,0.91,0.9082,0.9072,0.9073,0.9076,0.9076,0.9108,0.9102,0.9125,0.9134,0.9141,0.9145,0.916,0.917,0.9066,0.9066,0.9066,0,0,0.9203,0.9186,0.9193,0.9185,0.9174,0.9182,0.9135,0.9145,0.915,0.9101,0.9117,0.9104,0.9089,0.9115,0.9125,0.9106,0.9173,0.9147,0.9153,0.9153,0.9166,0.9176,0.9185,0.9069,0.9068,0.9068,0,0,0.9271,0.926,0.928,0.9271,0.9255,0.9234,0.924,0.9217,0.9206,0.9221,0.9184,0.9189,0.9194,0.9185,0.9181,0.9245,0.9217,0.9246,0.9291,0.9306,0.9314,0.9321,0.9343,0.9351,0.9251,0.9251,0.9251,0,0.9318,0.9328,0.9294,0.9307,0.9304,0.926,0.928,0.9272,0.9258,0.9257,0.9236,0.924,0.9227,0.9249,0.9264,0.9263,0.9267,0.9248,0.9316,0.9322,0.9328,0.9349,0.9357,0.9254,0.9254,0.9254,0.9253,0,0.9385,0.9392,0.9411,0.9397,0.9397,0.9413,0.9382,0.9385,0.9363,0.9344,0.9359,0.9343,0.9338,0.9342,0.932,0.936,0.9349,0.9322,0.9285,0.9343,0.9361,0.9369,0.926,0.9258,0.9257,0.9256,0,0,0.9493,0.946,0.9467,0.946,0.9439,0.9444,0.9459,0.9454,0.9457,0.9449,0.9459,0.9463,0.9438,0.9434,0.941,0.9424,0.9474,0.9395,0.9394,0.941,0.9516,0.9536,0.9546,0.9456,0.9457,0.9458,0.9517,0,0.9556,0.9578,0.9548,0.9576,0.9582,0.954,0.9552,0.9541,0.9524,0.9526,0.9507,0.951,0.9477,0.9474,0.9486,0.9466,0.9495,0.9461,0.9464,0.9465,0.9469,0.9555,0.9576,0.9633,0.9524,0.9526,0.9526,0,0.9632,0.9627,0.9656,0.9632,0.9634,0.9645,0.9638,0.9641,0.9627,0.9613,0.9608,0.958,0.9591,0.9556,0.9571,0.9548,0.9548,0.9538,0.954,0.9538,0.9499,0.9556,0.965,0.9659,0.9538,0.9537,0.9536,0,0.9707,0.9707,0.9724,0.9719,0.9692,0.9701,0.9691,0.9675,0.9673,0.9667,0.9666,0.9661,0.9658,0.9655,0.9626,0.9603,0.9645,0.9607,0.9633,0.9634,0.9643,0.9643,0.9739,0.9645,0.9644,0.9644,0.9644,0,0.978,0.9799,0.9756,0.9767,0.9787,0.9752,0.9773,0.9758,0.9744,0.975,0.9714,0.9721,0.9683,0.9685,0.9663,0.9678,0.9678,0.9666,0.966,0.9669,0.9671,0.9668,0.9663,0.9646,0.9646,0.9646,0.9645,0,0.9866,0.9839,0.9854,0.9827,0.9821,0.9837,0.9814,0.9822,0.9803,0.9811,0.9811,0.978,0.9781,0.9752,0.9748,0.9733,0.9757,0.9744,0.9762,0.9758,0.9786,0.9783,0.9882,0.9893,0.9793,0.9794,0.9795,0,0.9914,0.9928,0.9902,0.9904,0.9895,0.9898,0.9896,0.9863,0.9862,0.9847,0.9857,0.9855,0.9851,0.9855,0.9832,0.9828,0.9814,0.9849,0.9813,0.9822,0.9814,0.9813,0.9814,0.9857,0.9858,0.9859,0.986,0,1.0002,0.9987,0.9986,0.9981,0.998,0.9973,0.9965,0.9968,0.9931,0.9933,0.9933,0.9931,0.9925,0.9924,0.9915,0.9904,0.9876,0.9871,0.9877,0.9886,0.9895,0.989,0.9782,0.9869,0.9868,0.9867,0.9867,0.9867,1.007,1.0079,1.0063,1.0063,1.0053,1.0045,1.0052,1.0032,1.0032,1.0025,1.0005,1.0009,0.9994,0.9979,0.997,0.9972,0.9955,0.9964,0.9966,0.9968,0.9973,0.9896,0.9971,0.997,0.997,0.997,0.997,0,1.0155,1.0142,1.0142,1.0131,1.0131,1.0104,1.0093,1.0095,1.0098,1.0086,1.0083,1.0084,1.0081,1.0058,1.0053,1.0059,1.0046,1.0059,1.0058,1.0055,0.9989,0.9984,1.007,1.007,1.007,1.007,1.007,1.007,1.0199,1.0214,1.0197,1.0206,1.0193,1.0196,1.0192,1.0185,1.0175,1.0177,1.0175,1.016,1.0143,1.0136,1.0133,1.0126,1.0125,1.0143,1.0132,1.007,1.006,1.0051,1.0046,1.0143,1.0143,1.0197,1.0198,1.0198]},{"header":{"parameterUnit":"m.s-1","parameterCategory":1,"la1":30.2991,"la2":30.254,"lo1":-89.0895,"lo2":-89.0444,"dy":0.0017,"dx":0.0017,"nx":28,"ny":28,"refTime":"2024-03-28T21:00:00:Z","depth":0,"parameterNumber":3,"parameterNumberName":"V-component_of_WINDS"},"data":[0,0,0,0,0,0,0,0,0,0,0,0,0,0,0,0,0,0,0,0,0,0,0,0,0,0,0,0,0,0,0,0,0,0,0,0,0,0,0,0,0,0,0,0,0,0,0,0,0,0,0,0,0,0,0,0,0,0,3.7238,3.7239,0,3.7325,3.7326,3.7327,3.7261,3.7258,3.7255,3.7252,3.7338,3.7343,3.7348,0,0,0,0,0,0,0,0,0,0,0,0,0,3.7011,3.7016,3.7238,3.7239,3.724,3.7324,3.7326,3.7327,3.7261,3.7258,3.7254,3.7251,3.7337,3.7343,3.7349,0,0,0,0,0,0,0,0,0,0,0,0,0,3.7105,3.7017,3.7238,3.7218,3.7217,3.7324,3.7326,3.7327,3.7262,3.7258,3.7253,3.7249,3.7335,3.7342,3.7349,3.7481,0,0,3.7372,3.7375,0,0,0,0,0,0,0,0,3.71,3.7113,3.722,3.7219,3.7218,3.7277,3.7277,3.7379,3.7263,3.7245,3.7252,3.7247,3.7321,3.733,3.7355,3.7485,3.7489,3.7373,3.7377,3.738,3.7383,0,0,0,0,0,0,0,3.7093,3.7109,3.7272,3.7221,3.7221,3.7203,3.7211,3.7296,3.7306,3.7246,3.7241,3.7253,3.732,3.7348,3.7357,3.749,3.7373,3.7379,3.7384,3.7387,3.7728,3.7732,0,0,0,0,0,0,3.7089,3.7104,3.727,3.7275,3.7148,3.721,3.722,3.7263,3.7305,3.7307,3.7256,3.7249,3.7338,3.7348,3.736,3.7514,3.738,3.7387,3.7392,3.7723,3.7729,3.7734,0,0,0,0,0,0,3.7085,3.7105,3.7266,3.7188,3.7208,3.7219,3.7268,3.7267,3.7295,3.7313,3.7314,3.7283,3.7335,3.7349,3.745,3.7516,3.7391,3.7397,3.7718,3.7725,3.7731,3.7826,0,0,0,0,0,0,3.7079,3.7104,3.7155,3.719,3.7212,3.7357,3.7272,3.7272,3.7308,3.73,3.7338,3.7341,3.7332,3.744,3.7458,3.7524,3.7403,3.7712,3.7721,3.7729,3.7817,3.7835,3.7851,0,0,0,0,0,3.7071,3.7178,3.7158,3.7178,3.7277,3.7361,3.7374,3.7363,3.7314,3.7364,3.7375,3.7339,3.7506,3.7451,3.7471,3.754,3.7708,3.7718,3.7728,3.7809,3.7831,3.785,0,0,0,0,0,0,3.7151,3.7183,3.7161,3.7283,3.732,3.735,3.7414,3.7387,3.7439,3.7429,3.7412,3.7421,3.7527,3.7544,3.7482,3.7668,3.7599,3.7614,3.7653,3.7675,3.7691,3.7685,3.7409,0,0,0,0,0,3.7183,3.725,3.7274,3.7379,3.7399,3.7404,3.744,3.7428,3.7465,3.7481,3.7499,3.7536,3.7596,3.7636,3.7693,3.7818,3.7825,3.7876,3.7893,3.7906,3.7919,3.7984,3.8007,3.7768,3.7768,3.7767,0,0,3.7249,3.7275,3.7319,3.7396,3.7423,3.7491,3.7417,3.7493,3.7543,3.7492,3.7589,3.7603,3.7643,3.7756,3.7807,3.7773,3.7987,3.792,3.7931,3.7936,3.7997,3.802,3.804,3.7775,3.7774,3.7772,0,0,3.7405,3.7433,3.7522,3.7551,3.7593,3.7594,3.7616,3.765,3.7657,3.7754,3.7716,3.7774,3.788,3.7908,3.7937,3.8101,3.8069,3.8119,3.8208,3.8271,3.829,3.8307,3.8364,3.8384,3.8132,3.8132,3.8133,0,3.7483,3.7586,3.7572,3.765,3.7684,3.764,3.773,3.7758,3.7816,3.784,3.7801,3.793,3.7953,3.8072,3.8111,3.8136,3.8159,3.8115,3.8289,3.8305,3.832,3.8374,3.8396,3.8138,3.8137,3.8137,3.8136,0,3.7677,3.7749,3.7816,3.7873,3.7915,3.7999,3.7995,3.8039,3.8022,3.8028,3.8125,3.8151,3.8211,3.8238,3.8224,3.8354,3.8331,3.8291,3.8221,3.8349,3.84,3.842,3.8146,3.8144,3.8143,3.8141,0,0,3.7889,3.7935,3.796,3.7984,3.8026,3.808,3.816,3.8219,3.8256,3.8296,3.8362,3.845,3.8412,3.8444,3.8432,3.8488,3.8613,3.844,3.844,3.847,3.8756,3.8786,3.881,3.8592,3.8596,3.8599,3.8752,0,3.8046,3.8187,3.8175,3.8308,3.8372,3.833,3.8399,3.8431,3.8437,3.8491,3.8497,3.856,3.8506,3.8524,3.8578,3.8587,3.867,3.8575,3.8651,3.8654,3.8643,3.8837,3.887,3.9013,3.8772,3.8775,3.8778,0,3.8249,3.8296,3.8435,3.8465,3.8491,3.8554,3.8605,3.8658,3.8692,3.8693,3.8727,3.8705,3.8783,3.8711,3.8818,3.8753,3.8783,3.8792,3.8797,3.8804,3.8724,3.8848,3.9059,3.908,3.8809,3.8806,3.8804,0,3.8387,3.8486,3.8581,3.8603,3.864,3.8685,3.8702,3.8732,3.8767,3.8811,3.8833,3.8886,3.8915,3.8956,3.8947,3.8896,3.9055,3.8983,3.9056,3.9056,3.9092,3.909,3.931,3.9112,3.9112,3.9111,3.9111,0,3.8564,3.865,3.8643,3.8702,3.8796,3.8781,3.8874,3.8886,3.8912,3.8971,3.8937,3.8992,3.8977,3.9031,3.9025,3.9113,3.9126,3.9127,3.9125,3.9131,3.913,3.915,3.914,3.9117,3.9116,3.9115,3.9114,0,3.8735,3.8734,3.8835,3.8861,3.8869,3.8938,3.8959,3.9013,3.9015,3.909,3.9106,3.911,3.9171,3.9166,3.9236,3.9231,3.9339,3.9325,3.9328,3.9325,3.9398,3.9391,3.9639,3.967,3.9452,3.9454,3.9456,0,3.8848,3.8913,3.8946,3.8983,3.9003,3.9063,3.9099,3.9085,3.9122,3.9164,3.9213,3.9271,3.9318,3.9418,3.9426,3.9478,3.9464,3.9547,3.9472,3.9475,3.9464,3.946,3.9466,3.9562,3.9564,3.9566,3.9568,0,3.9048,3.9044,3.9097,3.9149,3.9192,3.9232,3.9268,3.93,3.9289,3.9333,3.9396,3.9432,3.9501,3.9559,3.9608,3.9624,3.9594,3.9591,3.9611,3.9618,3.9617,3.9617,3.9368,3.9586,3.9584,3.9583,3.9582,3.9581,3.9193,3.9248,3.9279,3.9338,3.9364,3.9398,3.945,3.9458,3.951,3.9566,3.9554,3.9624,3.9653,3.9716,3.9736,3.9789,3.9759,3.9788,3.9795,3.9802,3.981,3.9608,3.9798,3.9798,3.9797,3.9797,3.9796,0,3.939,3.9408,3.9462,3.9514,3.956,3.9527,3.9565,3.9605,3.9667,3.9697,3.9743,3.9813,3.9868,3.988,3.9932,3.9972,3.996,3.9986,3.9983,3.9987,3.9835,3.9812,3.9996,3.9995,3.9995,3.9995,3.9995,3.9995,3.9499,3.959,3.9588,3.969,3.9706,3.9775,3.9799,3.983,3.9853,3.9934,3.998,3.9986,4.0008,4.0061,4.0109,4.0111,4.0131,4.0164,4.016,4.0018,3.9998,3.9979,3.9958,4.0168,4.0169,4.0307,4.0308,4.0309]}]]